Rensselaer, IN

10:41 AM CDT on May 22, 2017 (GMT -0500)
Jasper County

Weather History for KRZL - October, 2011

Change the Weather History Date:

Friday, October 14, 2011

  Actual Average (KIKK) Record (KIKK)
Temperature  
Mean Temperature 54 °F -  
Max Temperature 62 °F 64 °F 86 °F (1975)
Min Temperature 46 °F 38 °F 27 °F (1988)
Degree Days  
Heating Degree Days 11    
Growing Degree Days 4 (Base 50)    
Moisture  
Dew Point 42 °F    
Average Humidity 68    
Maximum Humidity 93    
Minimum Humidity 42    
Precipitation  
Precipitation 0.03 in - - ()
Sea Level Pressure  
Sea Level Pressure 29.62 in    
Wind  
Wind Speed 11 mph (West)    
Max Wind Speed 23 mph    
Max Gust Speed 37 mph    
Visibility 10 miles    
Events Rain    
Averages and records for this station are not official NWS values.
T = Trace of Precipitation, MM = Missing Value Source: NWS Daily Summary

Daily Weather History Graph

Daily Weather History Graph

Search for Another Location

Airport or City:

Trip Planner

Search our weather history database for the weather conditions in past years. The results will help you decide how hot, cold, wet, or windy it might be!

Date:

Astronomy

Oct. 14, 2011 Rise Set
Actual Time 6:58 AM CDT 6:10 PM CDT
Civil Twilight 6:31 AM CDT 6:37 PM CDT
Nautical Twilight 5:59 AM CDT 7:09 PM CDT
Astronomical Twilight 5:27 AM CDT 7:41 PM CDT
Moon 7:21 PM CDT (10/14) 9:28 AM CDT (10/14)
Length of Visible Light 12h 06m
Length of Day
11h 11m
Waning Gibbous, 94% of the Moon is Illuminated
Oct 14
Waning Gibbous
Oct 19
Last Quarter
Oct 26
New
Nov 2
First Quarter
Nov 10
Full

Hourly Weather History & Observations

Time (CDT) Temp. Windchill Dew Point Humidity Pressure Visibility Wind Dir Wind Speed Gust Speed Precip Events Conditions
12:15 AM 51.8 °F - 48.2 °F 88% 29.55 in 10.0 mi West 8.1 mph - N/A   Clear
12:35 AM 51.8 °F - 46.4 °F 82% 29.55 in 10.0 mi West 9.2 mph - N/A   Clear
12:55 AM 50.0 °F - 46.4 °F 87% 29.55 in 10.0 mi West 5.8 mph - N/A   Clear
1:15 AM 50.0 °F - 46.4 °F 87% 29.56 in 10.0 mi West 10.4 mph 16.1 mph N/A   Clear
1:35 AM 50.0 °F - 46.4 °F 87% 29.56 in 10.0 mi West 9.2 mph - N/A   Clear
1:55 AM 50.0 °F - 46.4 °F 87% 29.56 in 10.0 mi West 6.9 mph - N/A   Clear
2:15 AM 50.0 °F - 44.6 °F 82% 29.56 in 10.0 mi West 8.1 mph - N/A   Clear
2:35 AM 48.2 °F - 44.6 °F 87% 29.56 in 10.0 mi WSW 8.1 mph - N/A   Scattered Clouds
2:55 AM 50.0 °F - 44.6 °F 82% 29.56 in 10.0 mi West 10.4 mph - N/A   Mostly Cloudy
3:15 AM 48.2 °F - 44.6 °F 87% 29.56 in 10.0 mi West 10.4 mph - N/A   Mostly Cloudy
3:35 AM 48.2 °F - 44.6 °F 87% 29.56 in 10.0 mi West 10.4 mph - N/A   Scattered Clouds
3:55 AM 48.2 °F - 44.6 °F 87% 29.57 in 10.0 mi WSW 8.1 mph - N/A   Clear
4:15 AM 46.4 °F 42.9 °F 44.6 °F 93% 29.57 in 10.0 mi WSW 6.9 mph - N/A   Clear
4:35 AM 46.4 °F 42.9 °F 44.6 °F 93% 29.58 in 10.0 mi WSW 6.9 mph - N/A   Clear
4:55 AM 46.4 °F 42.4 °F 44.6 °F 93% 29.58 in 10.0 mi WSW 8.1 mph - N/A   Clear
5:15 AM 46.4 °F 42.4 °F 44.6 °F 93% 29.58 in 10.0 mi West 8.1 mph - N/A   Clear
5:35 AM 46.4 °F 41.5 °F 44.6 °F 93% 29.59 in 10.0 mi West 10.4 mph - N/A   Clear
5:55 AM 46.4 °F 41.9 °F 44.6 °F 93% 29.59 in 10.0 mi WSW 9.2 mph 17.3 mph N/A   Clear
6:15 AM 46.4 °F 41.9 °F 44.6 °F 93% 29.59 in 10.0 mi WSW 9.2 mph - N/A   Clear
6:35 AM 46.4 °F 41.9 °F 42.8 °F 87% 29.60 in 10.0 mi WSW 9.2 mph - N/A   Clear
6:55 AM 46.4 °F 41.5 °F 42.8 °F 87% 29.60 in 10.0 mi West 10.4 mph - N/A   Clear
7:15 AM 46.4 °F 42.4 °F 42.8 °F 87% 29.60 in 10.0 mi WSW 8.1 mph - N/A   Clear
7:55 AM 46.4 °F 41.1 °F 44.6 °F 93% 29.61 in 10.0 mi West 11.5 mph - N/A   Clear
8:15 AM 50.0 °F - 44.6 °F 82% 29.61 in 10.0 mi West 10.4 mph 16.1 mph N/A   Clear
8:35 AM 50.0 °F - 44.6 °F 82% 29.61 in 10.0 mi WSW 10.4 mph 17.3 mph N/A   Scattered Clouds
8:55 AM 51.8 °F - 44.6 °F 76% 29.62 in 10.0 mi West 11.5 mph - N/A   Scattered Clouds
9:15 AM 51.8 °F - 44.6 °F 76% 29.63 in 10.0 mi West 10.4 mph 17.3 mph N/A   Scattered Clouds
9:35 AM 51.8 °F - 46.4 °F 82% 29.64 in 10.0 mi West 11.5 mph 19.6 mph N/A   Clear
9:55 AM 53.6 °F - 46.4 °F 77% 29.63 in 10.0 mi West 12.7 mph 18.4 mph N/A   Clear
10:15 AM 55.4 °F - 44.6 °F 67% 29.64 in 10.0 mi West 17.3 mph 24.2 mph N/A   Clear
10:35 AM 55.4 °F - 44.6 °F 67% 29.64 in 10.0 mi West 13.8 mph 25.3 mph N/A   Clear
10:55 AM 57.2 °F - 42.8 °F 59% 29.64 in 10.0 mi West 17.3 mph 28.8 mph N/A   Clear
11:15 AM 59.0 °F - 39.2 °F 48% 29.64 in 10.0 mi West 19.6 mph 28.8 mph N/A   Clear
11:35 AM 59.0 °F - 37.4 °F 45% 29.65 in 10.0 mi West 16.1 mph 24.2 mph N/A   Clear
11:55 AM 60.8 °F - 39.2 °F 45% 29.65 in 10.0 mi West 21.9 mph 27.6 mph N/A   Scattered Clouds
12:15 PM 59.0 °F - 37.4 °F 45% 29.65 in 10.0 mi West 11.5 mph 26.5 mph N/A   Mostly Cloudy
12:35 PM 60.8 °F - 37.4 °F 42% 29.64 in 10.0 mi West 19.6 mph 31.1 mph N/A   Mostly Cloudy
12:55 PM 60.8 °F - 39.2 °F 45% 29.64 in 10.0 mi West 21.9 mph 27.6 mph N/A   Mostly Cloudy
1:15 PM 60.8 °F - 37.4 °F 42% 29.65 in 10.0 mi West 19.6 mph 36.8 mph N/A   Mostly Cloudy
1:35 PM 62.6 °F - 41.0 °F 45% 29.65 in 10.0 mi West 23.0 mph 34.5 mph N/A   Mostly Cloudy
1:55 PM 60.8 °F - 39.2 °F 45% 29.65 in 10.0 mi West 18.4 mph 27.6 mph N/A   Mostly Cloudy
2:15 PM 62.6 °F - 39.2 °F 42% 29.64 in 10.0 mi West 23.0 mph 32.2 mph N/A   Scattered Clouds
2:35 PM 60.8 °F - 39.2 °F 45% 29.65 in 10.0 mi West 18.4 mph 32.2 mph N/A   Scattered Clouds
2:55 PM 60.8 °F - 37.4 °F 42% 29.65 in 10.0 mi West 17.3 mph 26.5 mph N/A   Scattered Clouds
3:15 PM 60.8 °F - 39.2 °F 45% 29.65 in 10.0 mi WSW 17.3 mph 25.3 mph N/A   Mostly Cloudy
3:35 PM 55.4 °F - 42.8 °F 63% 29.65 in 7.0 mi West 18.4 mph 26.5 mph 0.03 in Rain Light Rain
3:55 PM 59.0 °F - 42.8 °F 55% 29.65 in 10.0 mi WSW 20.7 mph 31.1 mph 0.03 in   Mostly Cloudy
4:15 PM 59.0 °F - 41.0 °F 51% 29.66 in 10.0 mi West 16.1 mph 24.2 mph N/A   Mostly Cloudy
4:35 PM 59.0 °F - 41.0 °F 51% 29.66 in 10.0 mi West 20.7 mph 29.9 mph N/A   Mostly Cloudy
4:55 PM 59.0 °F - 39.2 °F 48% 29.67 in 10.0 mi West 20.7 mph 29.9 mph N/A   Scattered Clouds
5:15 PM 59.0 °F - 39.2 °F 48% 29.67 in 10.0 mi West 20.7 mph 28.8 mph N/A   Scattered Clouds
5:35 PM 59.0 °F - 37.4 °F 45% 29.68 in 10.0 mi West 16.1 mph 24.2 mph N/A   Scattered Clouds
5:55 PM 57.2 °F - 37.4 °F 48% 29.69 in 10.0 mi West 16.1 mph 26.5 mph N/A   Scattered Clouds
6:15 PM 55.4 °F - 37.4 °F 51% 29.69 in 10.0 mi West 13.8 mph 25.3 mph N/A   Clear
6:35 PM 55.4 °F - 37.4 °F 51% 29.70 in 10.0 mi West 12.7 mph - N/A   Clear
6:55 PM 55.4 °F - 37.4 °F 51% 29.70 in 10.0 mi West 13.8 mph 19.6 mph N/A   Clear
7:15 PM 53.6 °F - 37.4 °F 54% 29.70 in 10.0 mi WSW 13.8 mph 18.4 mph N/A   Clear
8:15 PM 53.6 °F - 39.2 °F 58% 29.71 in 10.0 mi WSW 11.5 mph 18.4 mph N/A   Clear
8:35 PM 53.6 °F - 39.2 °F 58% 29.71 in 10.0 mi WSW 15.0 mph 20.7 mph N/A   Clear
8:55 PM 51.8 °F - 41.0 °F 67% 29.72 in 10.0 mi WSW 15.0 mph 20.7 mph N/A   Clear
9:15 PM 51.8 °F - 41.0 °F 67% 29.72 in 10.0 mi WSW 13.8 mph 21.9 mph N/A   Clear
9:35 PM 51.8 °F - 41.0 °F 67% 29.72 in 10.0 mi WSW 12.7 mph 17.3 mph N/A   Clear
9:55 PM 51.8 °F - 41.0 °F 67% 29.72 in 10.0 mi West 16.1 mph 23.0 mph N/A   Clear
10:15 PM 51.8 °F - 41.0 °F 67% 29.72 in 10.0 mi West 12.7 mph 19.6 mph N/A   Clear
10:35 PM 51.8 °F - 41.0 °F 67% 29.73 in 10.0 mi West 12.7 mph 21.9 mph N/A   Clear
10:55 PM 51.8 °F - 41.0 °F 67% 29.73 in 10.0 mi West 12.7 mph 19.6 mph N/A   Clear
11:15 PM 50.0 °F - 41.0 °F 71% 29.74 in 10.0 mi West 11.5 mph 19.6 mph N/A   Clear
11:35 PM 50.0 °F - 41.0 °F 71% 29.74 in 10.0 mi West 12.7 mph 17.3 mph N/A   Clear
11:55 PM 50.0 °F - 41.0 °F 71% 29.74 in 10.0 mi West 12.7 mph 17.3 mph N/A   Clear